Juigalpa, Nicaragua

4:39 PM CST on August 30, 2015 (GMT -0600)
Juigalpa | | Change Station
CLOSE
Current Station
Airport
Location: Juigalpa,
Elevation: 295 ft
Nearby Weather Stations

Elev 295 ft 12.10 °N, 85.37 °W | Updated 39 minutes ago

Light Thunderstorm
Light Thunderstorm
86 °F
Feels Like 97 °F
N
9
Wind Variable Wind from ENE

Today
High -- | Low -- °F
--% Chance of Precip.
Yesterday
High -- | Low -- °F
Precip. -- in
5:30 AM 5:53 PM
Full, 98% visible
Pressure 29.83 in
Visibility 6.2 miles
Clouds Scattered Clouds 2000 ft
Scattered Clouds 8000 ft
Heat Index 97 °F
Dew Point 77 °F
Humidity 74%
Rainfall 0.00 in
Snow Depth Not available.
UV 3 out of 12
Pollen Not available.
Air Quality Not available.
Flu Activity Not available.
METAR MNJU 302200Z 06008KT 9999 -TS SCT020CB SCT080 30/25 Q1010 CB/N/NE/W/NW
Pressure 29.83 in
Visibility 6.2 miles
Clouds Scattered Clouds 2000 ft
Scattered Clouds 8000 ft
Heat Index 97 °F
Dew Point 77 °F
Humidity 74%
Rainfall 0.00 in
Snow Depth Not available.
UV 3 out of 12
Pollen Not available.
Air Quality Not available.
Flu Activity Not available.
METAR MNJU 302200Z 06008KT 9999 -TS SCT020CB SCT080 30/25 Q1010 CB/N/NE/W/NW

10-Day Weather Forecast

×

Almanac

Astronomy

Aug. 30, 2015 Rise Set
Actual Time
Civil Twilight
Nautical Twilight
Astronomical Twilight
Moon
Length of Visible Light
Length of Day
Tomorrow will be .
, % of the Moon is Illuminated

Today's Extremes

Country Highs Country Lows

Community

WunderPhotos

Upload Photos

1,851,074 photos uploaded!

WunderBlogs® & News

Nearby

Air Quality

  Air Quality AQ Index Pollutant
Not available.

Snow Depth

Station Depth Elevation

Earthquake Activity

City Distance Mag. Time & Date
Minimum magnitude displayed is 2.5.

Coastal Water Temperatures

Place Temperature

Stations

Nearby Weather Stations

Station Location Temp. Windchill Dew Point Humidity Wind Precip. Elev Updated Type